Location: Hertford
(51.8000°N, 0.0667°W)
Time: 12:42:05
(UTC+00:00)

CZ-2C R/B - Pass Details

Date: 18 September 2020
Orbit: 640 x 704 km, 98.4° (Epoch: 21 October)

Event Time Altitude Azimuth Distance (km) Brightness Sun altitude
Rises 19:58:16 0° 20° (NNE) 2,962 7.1 -17.4°
Reaches altitude 10° 20:00:34 10° 27° (NNE) 2,051 6.2 -17.7°
Maximum altitude 20:04:48 42° 98° (E) 934 4.0 -18.3°
Enters shadow 20:05:32 39° 124° (SE) 984 4.0 -18.4°
